Mount Washington, New Hampshire, United States (03589)
Lat: 44.69N, Lon: 71.39W
Wx Zone: NHZ002
Local Info
Past Weather Observations for Today

NOTE: This archive is for the closest National Weather Service station to Mount Washington. Information may differ from the station used for current weather conditions.

Click here for Long-term Archive

Time Weather Temperature Dewpoint Humidity Pressure Winds Precip Visibility
09:52
Overcast
63°F / 17°C 55°F / 13°C 77% 30.09 in
(1019 mb)
Calm - 10SM
08:52
Overcast
59°F / 15°C 55°F / 13°C 88% 30.09 in
(1019 mb)
Calm - 10SM
07:52
Overcast
55°F / 13°C 54°F / 12°C 94% 30.09 in
(1019 mb)
Calm - 10SM
06:59
Overcast
Fog And Mist
52°F / 11°C 52°F / 11°C 100% 30.09 in
(1019 mb)
Calm - 6SM
06:52
Overcast
Fog And Mist
52°F / 11°C 52°F / 11°C 100% 30.09 in
(1019 mb)
Calm - 2 1/2SM
06:42
Overcast
Fog And Mist
52°F / 11°C 52°F / 11°C 100% 30.09 in
(1019 mb)
Calm - 1SM
06:18
Obscured
Fog And Mist
50°F / 10°C 50°F / 10°C 100% 30.09 in
(1019 mb)
Calm - 3/4SM
05:52
Obscured
Fog
50°F / 10°C 50°F / 10°C 100% 30.09 in
(1019 mb)
Calm - 1/4SM
04:52
Obscured
Fog
50°F / 10°C 48°F / 9°C 94% 30.09 in
(1019 mb)
Calm - M1/4SM
04:33
Obscured
Fog
48°F / 9°C 48°F / 9°C 100% 30.09 in
(1019 mb)
Calm - 1/4SM
04:26
Obscured
Fog
48°F / 9°C 48°F / 9°C 100% 30.09 in
(1019 mb)
Calm - 1/2SM
03:52
Obscured
Fog
48°F / 9°C 48°F / 9°C 100% 30.06 in
(1018 mb)
Calm - 1/4SM
03:21
Obscured
Fog
48°F / 9°C 48°F / 9°C 100% 30.06 in
(1018 mb)
Calm - 1/4SM
03:09
Obscured
Fog
48°F / 9°C 48°F / 9°C 100% 30.06 in
(1018 mb)
Calm - 1/2SM
02:52
Obscured
Fog
48°F / 9°C 48°F / 9°C 100% 30.06 in
(1018 mb)
Calm - 1/4SM
01:52
Obscured
Fog
50°F / 10°C 48°F / 9°C 94% 30.06 in
(1018 mb)
Calm - 1/4SM
01:44
Obscured
Fog
50°F / 10°C 48°F / 9°C 94% 30.06 in
(1018 mb)
Calm - 1/4SM
01:03
Obscured
Fog
50°F / 10°C 48°F / 9°C 94% 30.06 in
(1018 mb)
Calm - 1/4SM
00:52
Obscured
Fog
50°F / 10°C 50°F / 10°C 100% 30.06 in
(1018 mb)
Calm - 1/4SM
00:40
Obscured
Fog
50°F / 10°C 48°F / 9°C 94% 30.06 in
(1018 mb)
Calm - 1/2SM
00:33
Obscured
Fog
48°F / 9°C 48°F / 9°C 100% 30.06 in
(1018 mb)
Calm - 1/2SM
00:03
Overcast
Fog
50°F / 10°C 48°F / 9°C 94% 30.06 in
(1018 mb)
Calm - 1/4SM
Time Weather Temperature Dewpoint Humidity Pressure Winds Precip Visibility


Weather for websites

WeatherForYou.com, LLC is not responsible for any damages or problems caused by this service. Current weather conditions are obtained from the closest station including government and personal stations which may have varying degrees of accuracy. Weather forecasts are derived from the NOAA NDFD. Like all things, this site belongs to Jesus Christ... He just trusts me to maintain it. If you have any questions or comments email webmaster@weatherforyou.com

Copyright © 2014, WeatherForYou.com LLC. All rights reserved.